Preview of NWS' New Version of Forecast
This preview is not operational and should not be used for support decisions.

Regional Weather Roundup (RWR)

Issued by National Weather Service (NWS)

                            
000
ASCA42 TJSJ 191810
RWRPR 
PUERTO RICO/U.S. VIRGIN ISLANDS HOURLY WEATHER ROUNDUP
NATIONAL WEATHER SERVICE SAN JUAN PR
200 PM AST TUE FEB 19 2019

PRZ001>002-007>008-010-191900-
PUERTO RICO
  
CITY           SKY/WX    TMP DP  RH WIND       PRES   REMARKS
SAN JUAN LMM   PTSUNNY   81  70  69 NE17      30.11F                  
AGUADILLA      CLOUDY    81 N/A N/A E23G30    30.12F                  
CEIBA          SUNNY     81  70  69 NE8       30.12F                  
$$

VIZ001>002-191900-
U.S. VIRGIN ISLANDS
  
CITY           SKY/WX    TMP DP  RH WIND       PRES   REMARKS
CHARLOTTE AMA  CLOUDY    79  70  73 E10       30.10F                  
CHRISTIANSTED  MOSUNNY   88  68  51 E17G26    30.10F HX  91           
$$

HOURLY WEATHER ROUNDUP FOR THE NEWS MEDIA
  
CITY           SKY/WX    TMP DP  RH WIND       PRES   REMARKS
ORLANDO        CLOUDY    82  70  66 CALM      30.20F                  
NEW YORK       PTSUNNY   33  10  38 NW14      30.58F WCI  23          
NEWARK         PTSUNNY   33   7  33 NW8G20    30.57F WCI  26          
CHICAGO        PTSUNNY   30  12  47 E3        30.58F                  
HARTFORD       FAIR      30   7  37 NW17      30.46F WCI  18          
BOSTON         FAIR      30   3  31 NW13      30.46F WCI  20          
DALLAS         LGT RAIN  38  36  92 NE8       30.09F FOG     WCI  32  
PHILADELPHIA   PTSUNNY   37   9  31 N12       30.59  WCI  29          
LOS ANGELES    MOSUNNY   55  23  28 NE6       30.16R                  
WASHINGTON DC  PTSUNNY   37  11  34 NW9       30.61F WCI  30